Regional Weather Roundup
Issued by NWS State College, PA

Home | Current Version | Previous Version | Graphics & Text | Print | Product List | Glossary Off
Versions: 1 2 3 4 5 6 7 8 9 10 11 12 13 14 15 16 17 18 19 20 21 22 23 24 25 26 27 28 29 30 31 32 33 34 35 36 37 38 39 40 41 42 43 44 45 46 47 48 49 50

000
ASUS41 KCTP 301110
RWRCTP

REGIONAL WEATHER ROUNDUP
NATIONAL WEATHER SERVICE STATE COLLEGE PA
700 AM EDT SAT APR 30 2016

Note: "fair" indicates few or no clouds below 12,000 feet with no
significant weather and/or obstructions to visibility.

* = STATION THAT DOES NOT REPORT PRECIPITATION /E.G. RAIN...SNOW...ETC/
    THUNDER OR FOG.

PAZ002>004-007>009-013>016-020>023-029>032-301200-
WESTERN PENNSYLVANIA

CITY           SKY/WX    TMP DP  RH WIND       PRES   REMARKS
ERIE           MOCLDY    40  36  86 E3        30.17R
MEADVILLE      CLOUDY    41  40  96 E5        30.14R
FRANKLIN*      CLOUDY    43  39  87 E5        30.16R
NEW CASTLE     CLOUDY    43  41  93 NE5       30.15R
BEAVER COUNTY  NOT AVBL
BUTLER*        CLOUDY    45  41  87 E5        30.16R
PITTSBURGH INT CLOUDY    46  41  82 NE5       30.12S
PITTSBURGH     CLOUDY    47  42  83 CALM      30.12R
INDIANA*       CLOUDY    48  46  93 E6        30.17R
LATROBE        CLOUDY    48  48 100 NE6       30.13R FOG
WASHINGTON CO* PTCLDY    45  41  87 NE7       30.12S
$$

PAZ004>006-010>012-017>019-024>028-033>037-041-042-045-046-049>053-301200-
CENTRAL PENNSYLVANIA

CITY           SKY/WX    TMP DP  RH WIND       PRES   REMARKS
BRADFORD       CLOUDY    41  37  86 E8        30.14S
DUBOIS         CLOUDY    44  42  93 E5        30.14R
CLEARFIELD     CLOUDY    44  41  89 E5        30.17R
JOHNSTOWN      CLOUDY    45  41  86 E5        30.11R FOG
ALTOONA        FOG       45  44  97 NE5       30.15R VSB 1/4
STATE COLLEGE  FOG       43  43 100 VRB3      30.17R VSB 1/4
WILLIAMSPORT   CLOUDY    46  41  82 E6        30.19S
SELINSGROVE    CLOUDY    45  41  86 E5        30.21R
FT INDIANTOWN  CLOUDY    43  43  99 NE3       30.20R
CAPITAL CITY   CLOUDY    46  41  82 E5        30.20R
HARRISBURG     CLOUDY    45  42  89 NE3       30.19R
YORK           CLOUDY    45  44  97 NE5       30.18R FOG
$$

PAZ038>040-043-044-047-048-054-055-060>062-067>071-301200-
EASTERN PENNSYLVANIA

CITY           SKY/WX    TMP DP  RH WIND       PRES   REMARKS
SCRANTON       CLOUDY    43  38  82 CALM      30.20R
MOUNT POCONO   CLOUDY    37  35  92 CALM      30.17R
ALLENTOWN      CLOUDY    46  39  76 CALM      30.21R
QUAKERTOWN*    CLOUDY    45  39  81 NE3       30.21R
READING        CLOUDY    45  39  79 N5        30.20R
LANCASTER      CLOUDY    44  41  89 NE8       30.19S
COATESVILLE    CLOUDY    45  45 100 NE3       30.20R
POTTSTOWN      CLOUDY    45  39  79 N3        30.22R
BLUE BELL      CLOUDY    45  39  81 CALM      30.20R
DOYLESTOWN     CLOUDY    44  40  85 N5        30.20R
WILLOW GROVE   NOT AVBL
NORTH PHILA    CLOUDY    48  40  73 NE7       30.22R
PHILADELPHIA   CLOUDY    49  38  65 NE8       30.20S
$$



USA.gov is the U.S. government's official web portal to all federal, state and local government web resources and services.